Tracking 31027 objects as of 18-Jul-2025
HD Live streaming from Space Station
objects crossing your sky now

OBJECT D

Track OBJECT D now!
10-day predictions


NORAD ID: 60748
Int'l Code: 2024-153D
Perigee: 488.8 km
Apogee: 504.9 km
Inclination: 97.6 °
Period: 94.4 minutes
Semi major axis: 6867 km
RCS: Unknown
Launch date: August 29, 2024
Source: People's Republic of China (PRC)
Launch site: Yellow Sea Launch Area, China (YSLA)
Your satellite tracking list
Your tracking list is empty




NASA's NSSDC Master Catalog

Two Line Element Set (TLE):
1 60748U 24153D   25199.59885232  .00012545  00000-0  49886-3 0  9993
2 60748  97.6435 325.8964 0011738 241.7148 118.2905 15.25370688 49076
Source of the keplerian elements: AFSPC